This demonstration page uses our WeatherBlox Daily Observations layout. Learn more.

Left ArrowRight Arrow

39.12711, -84.51439

Hourly Observations for January 25, 2017

Temp ( °F °C ) Dew Point ( °F °C ) Humidity (%) Winds ( mph kmh ) Pressure ( in mb ) Visibility ( mi km ) Precip ( " mm )
12:53 am 00:53 Cloudy 37 2.8 36 2.2 96 96 N N/A 29.85 1011 7 11 N/A
1:53 am 01:53 Clear 35 1.7 35 1.7 100 100 N N/A 29.86 1011 7 11 N/A
2:53 am 02:53 Clear with Mist and Fog 32 undefined 32 undefined 100 100 N N/A 29.85 1011 4 6 N/A
3:53 am 03:53 Clear with Mist and Fog 32 undefined 32 undefined 100 100 N N/A 29.82 1010 4 6 N/A
4:09 am 04:09 Clear with Mist and Fog 31 -0.6 31 -0.6 100 100 N N/A 29.83 1010 2 3 N/A
4:19 am 04:19 Clear with Mist and Fog 33 0.6 32 undefined 96 96 N N/A 29.83 1010 3 5 N/A
4:53 am 04:53 Clear with Mist and Fog 32 undefined 31 -0.6 96 96 WSW 3 6 29.80 1009 6 10 N/A
5:53 am 05:53 Clear 34 1.1 33 0.6 97 97 N N/A 29.77 1008 7 11 N/A
6:53 am 06:53 Clear 34 1.1 34 1.1 100 100 WSW 5 7 29.75 1007 10 16 N/A
7:53 am 07:53 Sunny 37 2.8 35 1.7 93 93 S 3 6 29.73 1007 10 16 N/A
8:53 am 08:53 Partly Cloudy 40 4.4 37 2.8 89 89 SSW 7 11 29.71 1006 10 16 N/A
9:53 am 09:53 Mostly Cloudy 43 6.1 39 3.9 86 86 S 6 9 29.71 1006 10 16 N/A
10:53 am 10:53 Partly Cloudy 48 8.9 40 4.4 74 74 S 8 13 29.67 1005 10 16 N/A
11:53 am 11:53 Mostly Sunny 55 12.8 45 7.2 69 69 S 12 19 29.63 1003 10 16 N/A
12:53 pm 12:53 Partly Cloudy 58 14.4 47 8.3 67 67 SSW 18 30 29.60 1003 10 16 N/A
1:53 pm 13:53 Cloudy 57 13.9 48 8.9 72 72 SSW 10 17 29.57 1001 10 16 N/A
2:53 pm 14:53 Mostly Cloudy 59 15 50 10 72 72 SSW 23 37 29.56 1001 10 16 N/A
3:15 pm 15:15 Mostly Cloudy 58 14.4 50 10 75 75 SSW 16 26 29.56 1001 10 16 N/A
3:53 pm 15:53 Cloudy 58 14.4 49 9.4 72 72 SW 21 33 29.58 1002 10 16 N/A
4:53 pm 16:53 Cloudy 58 14.4 49 9.4 72 72 SW 15 24 29.57 1002 10 16 N/A
5:00 pm 17:00 Mostly Cloudy 57 14 48 9 72 72 SW 12 19 29.56 1001 10 16 N/A
5:53 pm 17:53 Cloudy 56 13.3 49 9.4 77 77 SSW 10 17 29.58 1002 10 16 N/A
6:29 pm 18:29 Mostly Cloudy 56 13.3 49 9.4 77 77 SSW 8 13 29.59 1002 10 16 N/A
6:38 pm 18:38 Mostly Cloudy 55 13 48 9 77 77 SSW 9 15 29.59 1002 10 16 N/A
6:53 pm 18:53 Cloudy 55 12.8 49 9.4 80 80 SSW 13 20 29.59 1002 10 16 N/A
7:53 pm 19:53 Cloudy 55 12.8 49 9.4 80 80 WSW 7 11 29.60 1002 10 16 N/A
8:53 pm 20:53 Mostly Clear 50 10 42 5.6 74 74 WNW 7 11 29.63 1004 10 16 N/A
9:53 pm 21:53 Partly Cloudy 48 8.9 39 3.9 71 71 WNW 9 15 29.65 1004 10 16 N/A
10:53 pm 22:53 Mostly Cloudy 46 7.8 37 2.8 71 71 NW 8 13 29.67 1005 10 16 N/A
11:53 pm 23:53 Mostly Cloudy 43 6.1 34 1.1 71 71 W 9 15 29.69 1006 10 16 N/A

Powered by AerisWeather